Time,TemperatureF,DewpointF,PressureIn,WindDirection,WindDirectionDegrees,WindSpeedMPH,WindSpeedGustMPH,Humidity,HourlyPrecipIn,Conditions,Clouds,dailyrainin,SoftwareType,DateUTC
2013-05-31 00:28:00,49.8,42.9,29.98,WNW,302,9.0,9.0,77,0.00,,,0.00,Wunderground v.1.15,2013-05-31 07:28:00,
2013-05-31 00:58:00,50.6,43.7,29.98,WNW,292,7.0,7.0,77,0.00,,,0.00,Wunderground v.1.15,2013-05-31 07:58:00,
2013-05-31 01:28:00,51.4,43.0,29.98,WNW,289,8.0,8.0,73,0.00,,,0.00,Wunderground v.1.15,2013-05-31 08:28:00,
2013-05-31 01:58:00,51.0,42.6,29.98,West,280,5.0,7.0,73,0.00,,,0.00,Wunderground v.1.15,2013-05-31 08:58:00,
2013-05-31 02:28:00,48.9,43.0,29.98,WNW,301,6.0,6.0,80,0.00,,,0.00,Wunderground v.1.15,2013-05-31 09:28:00,
2013-05-31 02:58:00,48.2,43.0,29.98,WNW,296,7.0,7.0,82,0.00,,,0.00,Wunderground v.1.15,2013-05-31 09:58:00,
2013-05-31 03:28:00,48.0,43.1,29.97,WNW,288,9.0,9.0,83,0.00,,,0.00,Wunderground v.1.15,2013-05-31 10:28:00,
2013-05-31 03:58:00,46.9,42.6,29.98,WNW,301,8.0,8.0,85,0.00,,,0.00,Wunderground v.1.15,2013-05-31 10:58:00,
2013-05-31 04:28:00,46.3,42.6,29.97,WNW,295,7.0,7.0,87,0.00,,,0.00,Wunderground v.1.15,2013-05-31 11:28:00,
2013-05-31 04:58:00,46.1,42.7,29.98,WNW,286,5.0,6.0,88,0.00,,,0.00,Wunderground v.1.15,2013-05-31 11:58:00,
2013-05-31 05:28:00,46.2,42.8,29.98,WNW,300,4.0,4.0,88,0.00,,,0.00,Wunderground v.1.15,2013-05-31 12:28:00,
2013-05-31 05:58:00,47.3,43.6,29.99,WNW,298,5.0,6.0,87,0.00,,,0.00,Wunderground v.1.15,2013-05-31 12:58:00,
2013-05-31 06:28:00,48.5,44.5,29.99,NW,305,1.0,2.0,86,0.00,,,0.00,Wunderground v.1.15,2013-05-31 13:28:00,
2013-05-31 06:58:00,53.4,45.3,30.00,WNW,290,6.0,8.0,74,0.00,,,0.00,Wunderground v.1.15,2013-05-31 13:58:00,
2013-05-31 07:28:00,55.6,45.2,30.01,West,278,7.0,9.0,68,0.00,,,0.00,Wunderground v.1.15,2013-05-31 14:28:00,
2013-05-31 07:58:00,57.5,45.8,30.01,West,279,4.0,6.0,65,0.00,,,0.00,Wunderground v.1.15,2013-05-31 14:58:00,
2013-05-31 08:28:00,60.1,45.7,30.01,WNW,298,4.0,4.0,59,0.00,,,0.00,Wunderground v.1.15,2013-05-31 15:28:00,
2013-05-31 08:58:00,62.4,46.0,30.01,West,281,4.0,4.0,55,0.00,,,0.00,Wunderground v.1.15,2013-05-31 15:58:00,
2013-05-31 09:28:00,64.9,45.3,30.01,WNW,297,5.0,5.0,49,0.00,,,0.00,Wunderground v.1.15,2013-05-31 16:28:00,
2013-05-31 09:58:00,67.9,46.3,30.00,West,271,4.0,5.0,46,0.00,,,0.00,Wunderground v.1.15,2013-05-31 16:58:00,
2013-05-31 10:28:00,70.3,46.7,30.00,West,265,5.0,5.0,43,0.00,,,0.00,Wunderground v.1.15,2013-05-31 17:28:00,
2013-05-31 10:58:00,74.4,47.1,30.00,WNW,286,3.0,3.0,38,0.00,,,0.00,Wunderground v.1.15,2013-05-31 17:58:00,
2013-05-31 11:28:00,76.5,46.0,29.99,WNW,290,3.0,3.0,34,0.00,,,0.00,Wunderground v.1.15,2013-05-31 18:28:00,
2013-05-31 11:58:00,78.7,48.0,29.99,WNW,286,5.0,5.0,34,0.00,,,0.00,Wunderground v.1.15,2013-05-31 18:58:00,
2013-05-31 12:28:00,80.0,48.3,29.97,WNW,283,7.0,10.0,33,0.00,,,0.00,Wunderground v.1.15,2013-05-31 19:28:00,
2013-05-31 12:58:00,79.9,50.6,29.97,WNW,288,10.0,10.0,36,0.00,,,0.00,Wunderground v.1.15,2013-05-31 19:58:00,
2013-05-31 13:28:00,77.2,45.9,29.97,WNW,292,12.0,12.0,33,0.00,,,0.00,Wunderground v.1.15,2013-05-31 20:28:00,
2013-05-31 13:58:00,77.1,45.8,29.96,WNW,298,10.0,11.0,33,0.00,,,0.00,Wunderground v.1.15,2013-05-31 20:58:00,
2013-05-31 14:28:00,77.2,45.9,29.95,NW,307,10.0,10.0,33,0.00,,,0.00,Wunderground v.1.15,2013-05-31 21:28:00,
2013-05-31 14:58:00,77.3,43.4,29.94,NW,305,11.0,18.0,30,0.00,,,0.00,Wunderground v.1.15,2013-05-31 21:58:00,
2013-05-31 15:28:00,77.7,43.8,29.93,WNW,286,13.0,18.0,30,0.00,,,0.00,Wunderground v.1.15,2013-05-31 22:28:00,
2013-05-31 15:58:00,77.0,44.9,29.93,WNW,289,12.0,13.0,32,0.00,,,0.00,Wunderground v.1.15,2013-05-31 22:58:00,
2013-05-31 16:28:00,75.8,44.6,29.92,NW,305,12.0,12.0,33,0.00,,,0.00,Wunderground v.1.15,2013-05-31 23:28:00,
2013-05-31 16:58:00,73.7,46.5,29.91,WNW,298,12.0,14.0,38,0.00,,,0.00,Wunderground v.1.15,2013-05-31 23:58:00,
2013-05-31 17:28:00,70.1,47.8,29.91,NW,311,13.0,13.0,45,0.00,,,0.00,Wunderground v.1.15,2013-06-01 00:28:00,
2013-05-31 17:58:00,68.6,47.6,29.91,WNW,289,13.0,13.0,47,0.00,,,0.00,Wunderground v.1.15,2013-06-01 00:58:00,
2013-05-31 18:28:00,66.9,47.1,29.91,NW,319,12.0,15.0,49,0.00,,,0.00,Wunderground v.1.15,2013-06-01 01:28:00,
2013-05-31 18:58:00,66.3,47.1,29.91,WNW,284,9.0,20.0,50,0.00,,,0.00,Wunderground v.1.15,2013-06-01 01:58:00,
2013-05-31 19:28:00,63.8,46.8,29.91,WNW,298,9.0,13.0,54,0.00,,,0.00,Wunderground v.1.15,2013-06-01 02:28:00,
2013-05-31 19:58:00,63.6,46.6,29.90,NW,308,8.0,9.0,54,0.00,,,0.00,Wunderground v.1.15,2013-06-01 02:58:00,
2013-05-31 20:28:00,64.4,46.9,29.90,NW,305,10.0,10.0,53,0.00,,,0.00,Wunderground v.1.15,2013-06-01 03:28:00,
2013-05-31 20:58:00,63.0,46.6,29.90,NNW,342,7.0,7.0,55,0.00,,,0.00,Wunderground v.1.15,2013-06-01 03:58:00,
2013-05-31 21:28:00,60.3,46.4,29.91,NW,313,9.0,9.0,60,0.00,,,0.00,Wunderground v.1.15,2013-06-01 04:28:00,
2013-05-31 21:58:00,58.8,46.6,29.91,NW,312,9.0,9.0,64,0.00,,,0.00,Wunderground v.1.15,2013-06-01 04:58:00,
2013-05-31 22:28:00,59.7,46.2,29.92,West,277,9.0,11.0,61,0.00,,,0.00,Wunderground v.1.15,2013-06-01 05:28:00,
2013-05-31 22:58:00,58.6,45.6,29.92,WNW,294,8.0,11.0,62,0.00,,,0.00,Wunderground v.1.15,2013-06-01 05:58:00,
2013-05-31 23:28:00,58.2,45.2,29.92,West,268,9.0,9.0,62,0.00,,,0.00,Wunderground v.1.15,2013-06-01 06:28:00,
2013-05-31 23:58:00,55.3,45.7,29.92,WNW,293,10.0,10.0,70,0.00,,,0.00,Wunderground v.1.15,2013-06-01 06:58:00,